Temperature
13 13 13 12 12 12 12 12 12 12 12 12 12 12 12 12 12 12 12 12 12 12 12 12 12 12 12 13 13 13 13 13 13 13 14 14 14 14 15 15 15 15 15
13 13 13 13 12 12 12 12 12 12 12 12 12 12 12 12 12 12 12 12 12 12 12 12 12 12 12 13 13 13 13 13 13 13 13 14 14 14 14 14 14 14 15
14 13 13 13 13 13 12 12 12 12 12 12 12 12 12 12 12 12 12 12 12 12 12 12 12 12 12 12 13 13 13 13 13 13 13 13 13 14 14 14 14 14 14
14 13 13 13 13 13 12 12 12 12 12 12 12 12 12 12 12 12 12 12 12 12 12 12 12 12 12 12 12 13 13 13 13 13 13 13 13 13 13 13 14 14 14
14 14 13 13 13 13 13 12 12 13 12 12 12 12 12 12 12 12 12 12 12 12 12 12 12 12 12 12 12 12 12 12 13 13 13 13 13 13 13 13 13 13 13
15 14 14 13 13 13 13 13 13 13 12 12 12 12 12 12 13 13 12 12 12 12 12 12 12 12 12 13 13 13 12 12 12 12 13 13 13 13 13 13 13 13 13
15 14 14 14 13 13 13 13 13 13 13 13 13 13 12 12 13 13 13 12 12 12 12 12 12 12 12 12 12 12 12 12 12 12 12 13 13 13 13 12 12 12 13
15 14 14 14 13 13 13 13 13 13 13 13 13 13 13 13 13 13 13 13 12 12 12 12 12 12 12 12 12 12 12 12 12 12 12 12 12 12 12 12 12 12 12
15 15 14 14 14 14 13 13 13 13 13 13 13 13 13 13 13 13 13 13 12 12 12 12 12 12 12 12 12 12 12 12 12 12 12 12 12 13 12 12 12 12 12
15 15 15 14 14 14 14 13 13 13 13 13 13 13 13 13 13 13 13 13 12 12 12 12 12 12 12 12 12 12 12 12 12 12 12 12 12 12 12 12 12 12 12
15 15 15 15 14 14 14 14 14 13 13 13 13 13 13 13 13 13 13 13 12 12 12 12 12 12 12 12 12 12 12 12 12 12 12 12 12 12 12 12 12 12 12
16 15 15 15 15 14 14 14 14 13 13 13 13 13 13 13 13 13 13 13 13 12 12 12 12 12 12 12 12 12 12 12 12 12 12 12 12 12 12 12 12 12 12
16 15 15 15 14 14 14 14 13 13 13 13 13 13 12 12 12 13 13 13 12 12 12 12 12 12 12 12 12 12 12 11 11 11 11 11 11 11 11 11 11 11 11
15 15 15 14 14 14 14 13 13 13 13 13 12 12 12 12 12 12 12 12 12 12 12 12 12 12 11 11 11 11 11 11 11 11 11 11 11 11 11 11 11 11 11
15 15 14 14 14 14 13 13 13 13 13 12 12 12 12 12 12 12 12 12 11 11 11 11 11 11 11 10 10 10 10 10 10 10 10 10 10 10 10 11 10 10 10
15 15 14 14 14 13 13 13 13 12 12 12 12 12 12 11 11 11 11 11 11 11 11 10 10 10 10 10 10 10 10 10 10 10 10 9 10 10 10 10 10 10 10
15 15 14 14 13 13 12 12 12 12 12 11 11 11 11 11 11 11 11 11 11 11 10 10 10 9 9 9 9 9 9 9 9 9 9 9 9 9 9 9 9 9 9
15 14 14 14 13 13 12 12 11 11 11 10 10 10 10 10 10 10 10 10 10 9 9 9 8 8 8 8 8 8 8 8 8 8 8 8 8 8 8 8 8 8 8
14 14 14 13 13 12 12 11 11 10 10 10 9 10 10 9 9 9 9 9 8 8 8 8 7 7 7 7 7 7 7 7 7 7 7 7 7 7 7 7 7 7 7
14 14 13 13 12 12 11 11 10 10 9 9 9 9 9 8 8 8 8 8 7 7 7 7 7 7 6 6 6 6 6 6 6 6 6 6 6 6 6 6 6 6 6
13 13 13 12 11 11 10 10 10 9 9 9 8 8 8 8 7 7 7 7 7 6 6 6 6 6 6 5 5 5 5 5 5 5 5 5 5 5 5 5 5 5 5
13 12 12 11 11 10 10 9 9 9 8 8 8 8 8 7 7 7 6 6 6 6 5 5 5 5 5 5 5 5 4 4 4 4 4 4 4 4 4 4 4 4 4
12 11 11 10 10 10 9 9 8 8 8 7 7 7 7 6 6 6 6 5 5 5 5 5 4 4 4 4 4 4 4 3 4 3 3 3 3 3 3 3 3 3 3
11 11 10 10 9 9 8 8 8 7 7 7 6 6 6 6 5 5 5 5 4 4 4 4 4 3 3 3 3 3 3 3 3 3 2 2 2 2 2 2 2 2 2
10 10 9 9 8 8 7 7 7 7 6 6 6 6 5 5 5 4 4 4 4 4 3 3 3 3 3 2 2 2 2 2 2 2 2 1 1 1 1 1 1 1 1
9 9 8 8 8 7 7 7 6 6 6 5 5 5 5 4 4 4 4 3 3 3 3 2 2 2 2 2 2 2 2 2 1 1 1 0 0 0 -0 -0 -0 -0 -0
Wind_Speed
4 3 3 3 3 4 4 4 5 5 5 4 4 4 4 3 2 2 2 3 3 3 3 4 4 3 3 3 3 3 4 3 4 3 3 2 3 3 3 4 5 6 8
4 3 3 3 3 3 3 4 4 4 4 4 4 4 4 4 3 2 2 2 3 3 3 3 3 3 3 3 3 4 4 4 4 4 3 3 3 3 3 4 4 5 6
4 4 4 3 3 3 3 4 4 4 4 3 3 4 3 4 3 3 2 1 1 2 2 3 3 3 3 3 3 4 4 4 4 4 3 3 3 2 3 3 4 4 5
5 4 4 3 3 3 3 3 4 4 3 3 3 3 3 3 3 3 2 2 1 1 1 2 2 2 3 3 3 4 3 3 4 4 4 3 3 3 3 3 3 3 4
6 5 4 3 3 3 3 3 3 3 3 3 3 3 3 3 3 4 3 2 2 1 1 1 1 1 2 2 2 3 3 3 3 4 4 3 3 3 3 3 3 3 4
7 5 4 3 3 3 3 3 3 3 3 3 3 3 3 3 4 5 5 2 1 1 1 1 0 1 2 3 3 3 3 4 4 4 4 4 5 4 3 3 3 4 4
7 6 5 4 3 3 3 3 3 3 3 3 3 3 3 3 3 4 5 3 2 2 2 1 1 1 2 2 3 5 5 4 5 6 6 6 6 4 4 5 5 5 5
8 7 5 4 4 3 2 2 3 2 2 3 3 3 2 3 3 4 6 3 2 2 2 2 1 1 1 2 2 3 3 3 4 6 6 6 6 5 5 5 5 5 5
8 7 6 6 4 4 3 3 3 2 2 2 2 2 3 2 2 4 7 2 2 2 1 2 2 2 3 3 3 3 3 2 3 5 5 5 5 5 5 4 5 5 5
9 8 7 6 5 5 4 3 2 2 3 3 2 3 3 3 3 4 7 3 2 2 1 1 2 2 3 4 3 3 3 3 2 3 4 6 6 6 8 8 6 6 5
8 7 7 6 6 5 4 3 3 3 2 3 2 2 2 3 1 2 5 3 3 3 2 1 1 3 2 3 5 3 3 5 4 3 3 3 3 3 4 5 5 6 6
8 7 7 6 5 4 4 4 3 3 3 3 2 2 1 1 2 2 2 3 5 2 2 2 2 4 2 3 3 4 4 5 3 2 2 2 3 3 3 4 5 5 6
9 8 7 6 5 5 4 4 3 3 3 2 2 2 1 1 1 1 1 1 2 2 1 4 4 2 2 1 2 2 3 2 2 3 3 3 3 3 3 3 4 4 5
10 9 7 7 6 5 3 3 3 2 2 2 2 2 2 1 2 1 0 1 3 2 1 3 3 1 0 2 1 1 2 3 3 3 3 3 3 3 3 3 3 3 4
10 9 8 7 6 5 4 1 1 1 2 1 1 1 2 2 4 7 4 2 1 1 0 1 1 1 2 2 3 3 3 3 3 3 3 3 3 3 3 3 3 3 4
10 9 7 7 6 5 5 5 6 5 7 7 6 4 3 4 5 5 6 6 5 3 0 1 2 2 3 3 3 3 3 4 4 4 4 4 4 4 4 4 3 4 5
11 9 7 7 7 6 6 6 5 5 6 7 7 6 5 6 6 5 5 6 5 2 2 3 3 3 3 3 3 3 4 4 4 4 4 4 5 5 5 5 5 5 5
11 9 8 7 7 7 6 6 5 5 5 4 6 6 6 6 6 5 2 2 4 4 3 3 3 3 3 3 4 4 4 4 4 4 5 5 5 5 5 6 6 7 7
10 8 8 7 7 7 6 6 5 5 4 4 4 5 5 5 5 5 2 3 3 3 3 3 3 3 3 3 4 4 4 4 5 5 5 5 6 6 6 6 7 7 8
8 9 8 8 8 7 7 6 6 6 5 4 4 3 3 3 2 3 3 3 3 3 3 3 3 3 3 3 4 4 4 4 5 5 5 5 5 6 7 8 7 7 7
9 9 10 8 8 7 7 7 6 6 5 4 4 3 1 2 2 2 2 2 2 2 2 2 2 3 3 3 4 4 5 5 5 6 6 6 7 7 7 7 8 8 8
9 9 9 8 8 7 7 7 7 6 6 6 5 5 3 2 2 2 2 2 2 2 2 2 2 3 3 4 4 4 5 5 6 6 7 7 7 7 8 8 8 8 9
9 9 9 8 8 8 8 7 7 7 6 6 5 4 4 3 2 2 2 2 2 2 2 2 2 2 3 4 4 5 5 6 6 8 8 8 8 8 8 9 10 11 10
9 10 9 9 8 8 8 7 7 7 6 6 5 4 4 3 2 2 1 1 1 1 2 2 2 3 4 4 4 5 6 7 9 8 9 9 9 9 9 9 10 12 11
9 9 9 9 9 8 8 7 7 7 6 5 5 4 4 3 2 2 1 0 0 1 2 2 2 3 4 5 5 6 8 10 10 11 10 9 10 10 10 11 11 12 12
9 9 9 8 8 8 8 7 7 7 6 5 5 4 4 3 2 2 1 1 1 1 2 2 3 4 5 5 6 7 9 10 11 13 12 9 10 10 11 10 13 12 13
Wind_Direction
234 246 263 281 294 300 311 321 324 326 328 331 338 339 340 342 335 305 276 258 253 250 240 242 243 245 242 236 233 237 236 236 240 258 267 273 265 250 237 229 220 218 211
226 240 260 278 281 291 308 318 325 331 334 336 342 343 350 345 340 333 313 276 255 255 253 246 238 235 239 237 234 232 230 231 236 242 251 261 270 257 247 237 231 230 230
214 233 249 258 277 292 303 315 322 330 336 340 345 346 350 346 342 335 321 308 289 271 265 254 242 231 236 233 234 236 234 234 235 237 243 259 263 252 248 244 239 243 243
208 225 241 257 269 285 299 310 318 327 332 337 342 340 346 346 341 344 348 351 347 327 298 285 256 241 249 245 237 237 236 234 235 237 235 240 249 250 238 241 248 241 245
205 219 232 246 256 273 286 294 310 321 323 336 338 339 349 349 355 347 348 352 355 345 331 318 297 311 315 287 272 252 240 235 233 240 242 242 244 245 242 249 255 264 264
204 212 215 235 243 257 272 285 299 307 316 326 325 333 343 353 8 342 320 322 334 330 321 323 298 215 220 234 261 277 278 255 251 248 248 247 247 247 249 247 254 257 258
200 203 208 221 231 245 257 272 282 285 300 308 314 317 324 0 8 338 311 304 307 321 324 320 313 274 236 235 208 216 230 233 251 259 259 260 258 247 242 241 240 246 257
198 201 204 214 223 229 239 259 272 286 294 297 314 314 317 346 360 330 306 279 286 293 293 295 283 298 319 294 248 242 253 245 241 248 256 265 269 264 249 250 254 257 264
199 204 203 207 213 219 226 240 259 276 287 290 306 310 307 324 12 330 306 289 283 287 298 317 313 306 49 315 268 259 263 264 215 232 279 289 296 275 261 248 236 239 256
199 204 203 205 210 217 227 237 238 249 268 283 295 301 306 318 29 345 309 290 292 295 299 286 62 355 14 320 280 276 280 290 291 265 248 242 251 234 225 236 238 239 252
193 197 199 200 208 216 223 227 231 239 255 269 277 281 294 321 8 359 324 298 296 302 305 301 29 76 359 327 303 303 328 311 290 283 280 277 272 265 246 244 246 245 249
183 188 194 198 204 206 211 223 230 231 237 247 259 271 284 308 357 25 349 321 314 296 307 321 42 61 14 338 328 10 339 300 286 289 288 286 279 276 272 263 258 254 257
180 185 190 192 195 203 206 210 218 225 242 254 261 280 297 329 68 141 255 306 309 287 347 45 38 18 304 250 77 340 300 295 307 302 303 308 306 299 291 281 272 262 262
185 186 187 189 188 188 193 210 217 228 236 247 266 284 303 319 336 340 291 174 181 204 197 132 148 116 93 29 359 335 351 357 335 318 313 315 316 310 297 287 281 277 270
188 186 188 185 180 176 159 110 168 71 18 318 305 314 321 336 20 9 346 347 353 28 20 126 71 62 52 47 34 23 12 5 357 347 334 327 321 319 317 308 296 289 279
190 187 184 180 174 172 159 130 71 74 73 63 42 25 55 47 41 47 48 44 38 16 32 91 62 44 34 27 23 21 14 7 359 353 350 344 336 329 324 319 311 300 296
191 185 182 182 178 178 176 170 154 126 103 81 68 59 59 58 62 64 69 69 52 35 84 72 57 41 30 23 15 10 11 6 356 354 350 346 341 335 332 328 323 317 310
191 182 180 179 180 181 181 181 178 174 161 131 100 83 77 73 65 57 54 124 82 70 64 57 49 38 28 18 12 6 4 4 359 355 352 349 343 335 330 327 324 323 315
185 181 178 175 175 177 176 175 174 172 164 153 140 120 111 111 94 54 31 77 75 70 62 53 39 31 23 15 10 3 1 360 358 352 350 348 342 335 330 326 321 322 313
178 166 169 171 172 173 174 173 171 167 164 159 154 143 143 148 115 93 80 73 71 65 54 46 34 22 14 8 2 355 350 351 349 344 341 340 337 331 327 324 321 318 313
169 165 169 174 174 173 172 172 169 167 164 157 144 110 67 146 122 105 93 80 64 54 45 35 26 16 10 1 353 349 347 348 347 343 340 337 333 328 324 320 318 315 313
167 168 173 173 170 171 169 168 166 164 161 154 143 134 144 159 129 118 102 83 67 48 34 19 15 12 360 353 349 345 344 344 345 342 337 332 327 323 319 316 314 314 311
165 166 167 166 165 160 166 167 166 165 162 160 156 152 155 149 137 125 105 77 56 39 25 8 0 1 359 356 353 348 344 345 340 333 328 323 320 318 316 314 312 311 310
166 167 167 166 167 169 171 170 169 168 167 166 164 162 158 152 146 133 111 75 38 17 5 354 351 350 350 349 349 350 353 347 334 323 320 315 312 311 310 309 308 308 307
167 168 170 170 170 171 172 172 172 171 171 172 171 166 162 160 160 159 158 149 335 340 341 336 336 340 341 340 340 346 357 347 333 323 315 308 305 305 305 305 304 305 303
167 168 169 169 171 172 174 174 175 175 175 174 173 171 171 173 177 184 193 226 288 306 314 320 328 328 325 326 338 343 334 324 320 317 311 305 302 301 303 301 301 299 298
Height
1503 1503 1502 1501 1500 1499 1497 1495 1493 1492 1490 1488 1486 1484 1482 1480 1479 1478 1478 1477 1478 1478 1478 1479 1479 1479 1480 1481 1481 1482 1483 1484 1485 1485 1486 1487 1488 1489 1490 1491 1493 1494 1496
1501 1501 1501 1500 1499 1498 1497 1495 1493 1492 1490 1488 1486 1484 1482 1480 1479 1478 1477 1477 1477 1477 1477 1477 1478 1478 1478 1479 1480 1480 1481 1482 1483 1483 1484 1485 1486 1486 1487 1488 1489 1491 1492
1499 1499 1499 1499 1498 1497 1496 1494 1493 1491 1490 1488 1486 1485 1483 1481 1479 1478 1477 1477 1476 1476 1476 1476 1476 1476 1477 1477 1478 1479 1479 1480 1481 1482 1482 1483 1484 1484 1485 1486 1487 1487 1489
1498 1498 1498 1498 1497 1496 1495 1493 1492 1491 1490 1488 1486 1485 1483 1481 1480 1479 1478 1477 1476 1475 1475 1475 1475 1475 1476 1476 1476 1477 1477 1478 1478 1479 1480 1480 1481 1482 1482 1483 1484 1485 1486
1496 1496 1496 1496 1496 1495 1494 1492 1491 1490 1489 1488 1486 1485 1483 1482 1481 1479 1478 1477 1476 1475 1475 1475 1474 1474 1474 1474 1474 1475 1475 1476 1476 1477 1477 1478 1479 1479 1480 1480 1481 1482 1482
1494 1495 1495 1494 1494 1493 1493 1492 1491 1489 1489 1487 1486 1485 1484 1482 1481 1479 1478 1477 1477 1476 1475 1475 1474 1473 1473 1473 1473 1473 1474 1474 1475 1475 1475 1476 1476 1477 1478 1478 1478 1479 1480
1492 1493 1493 1493 1493 1492 1491 1491 1490 1489 1488 1487 1486 1485 1484 1482 1481 1479 1478 1478 1477 1476 1475 1475 1474 1473 1472 1473 1472 1472 1472 1472 1472 1473 1473 1474 1474 1474 1475 1475 1476 1476 1476
1490 1491 1491 1491 1491 1491 1490 1489 1489 1488 1487 1486 1485 1484 1483 1482 1481 1479 1478 1477 1477 1476 1475 1475 1474 1473 1472 1472 1472 1471 1471 1471 1470 1471 1471 1471 1472 1472 1472 1473 1473 1473 1473
1487 1488 1489 1489 1489 1489 1489 1488 1488 1487 1486 1485 1485 1484 1482 1482 1480 1479 1478 1477 1477 1476 1475 1474 1473 1473 1471 1471 1471 1470 1470 1469 1469 1468 1468 1468 1468 1468 1469 1469 1470 1470 1470
1484 1485 1486 1487 1487 1487 1487 1487 1486 1486 1485 1484 1483 1483 1482 1481 1479 1478 1477 1477 1476 1475 1474 1473 1472 1471 1470 1470 1470 1469 1469 1468 1468 1467 1466 1466 1466 1465 1466 1466 1467 1467 1467
1481 1482 1483 1484 1485 1485 1485 1485 1485 1484 1484 1483 1482 1481 1480 1479 1478 1477 1476 1475 1475 1474 1474 1473 1471 1470 1469 1469 1469 1468 1468 1467 1466 1465 1465 1464 1464 1463 1463 1463 1463 1464 1464
1477 1479 1480 1481 1482 1482 1483 1483 1483 1483 1482 1482 1481 1480 1479 1478 1477 1475 1474 1474 1473 1473 1472 1471 1470 1469 1468 1468 1467 1467 1466 1466 1465 1464 1463 1462 1462 1461 1461 1460 1460 1460 1460
1474 1476 1477 1478 1479 1480 1480 1481 1481 1480 1480 1480 1480 1479 1478 1477 1475 1474 1473 1472 1472 1471 1470 1469 1468 1468 1467 1467 1466 1466 1465 1465 1464 1463 1462 1461 1460 1459 1458 1457 1457 1456 1456
1471 1472 1474 1475 1476 1477 1477 1478 1478 1478 1478 1478 1478 1477 1476 1475 1474 1473 1472 1471 1470 1470 1469 1468 1467 1467 1466 1465 1465 1464 1464 1463 1462 1461 1460 1459 1458 1457 1456 1455 1454 1453 1453
1467 1469 1471 1472 1473 1473 1474 1474 1474 1474 1475 1475 1475 1474 1474 1473 1472 1471 1470 1470 1469 1468 1468 1467 1467 1466 1465 1465 1464 1463 1462 1461 1460 1460 1459 1458 1456 1455 1454 1453 1452 1451 1450
1463 1465 1467 1468 1469 1470 1471 1471 1471 1471 1471 1472 1471 1471 1471 1470 1469 1469 1468 1467 1467 1466 1466 1466 1465 1465 1464 1463 1463 1462 1461 1460 1459 1458 1457 1456 1455 1454 1452 1451 1450 1449 1448
1459 1460 1462 1463 1465 1466 1467 1468 1468 1469 1469 1469 1469 1469 1469 1468 1467 1467 1466 1466 1465 1465 1465 1464 1464 1463 1463 1462 1461 1460 1460 1458 1457 1456 1455 1454 1453 1452 1451 1449 1448 1447 1445
1454 1455 1457 1459 1461 1462 1464 1465 1466 1466 1467 1466 1466 1466 1466 1466 1465 1465 1464 1464 1464 1463 1463 1463 1462 1462 1461 1461 1460 1459 1458 1457 1456 1455 1454 1452 1451 1450 1448 1447 1446 1444 1442
1448 1450 1452 1454 1456 1458 1460 1461 1462 1463 1464 1464 1464 1464 1464 1464 1464 1463 1463 1463 1463 1462 1462 1461 1461 1460 1460 1459 1458 1457 1456 1455 1454 1453 1451 1450 1449 1447 1446 1445 1443 1441 1439
1443 1445 1447 1450 1452 1454 1455 1457 1458 1460 1461 1461 1462 1462 1462 1463 1462 1462 1462 1462 1462 1461 1461 1460 1460 1459 1458 1457 1456 1455 1454 1453 1452 1451 1449 1448 1446 1445 1443 1441 1440 1438 1436
1438 1440 1443 1445 1447 1449 1451 1453 1455 1456 1457 1458 1459 1459 1460 1461 1461 1461 1461 1461 1460 1460 1460 1459 1458 1457 1456 1455 1454 1453 1452 1451 1449 1448 1446 1445 1443 1441 1439 1438 1436 1434 1432
1433 1435 1438 1440 1443 1445 1447 1449 1451 1453 1454 1455 1456 1457 1457 1458 1459 1459 1459 1459 1458 1458 1457 1457 1456 1455 1454 1453 1452 1451 1449 1448 1447 1445 1443 1441 1439 1437 1436 1434 1432 1430 1428
1428 1431 1433 1436 1438 1441 1443 1445 1447 1449 1451 1452 1453 1454 1455 1456 1456 1456 1456 1456 1456 1455 1455 1454 1453 1452 1451 1450 1449 1447 1446 1444 1443 1441 1439 1437 1435 1433 1431 1429 1427 1425 1423
1423 1426 1429 1432 1434 1437 1439 1442 1444 1446 1448 1449 1450 1451 1452 1453 1453 1454 1454 1453 1453 1452 1452 1451 1450 1449 1448 1447 1445 1444 1442 1440 1438 1436 1434 1432 1430 1428 1426 1424 1422 1420 1418
1418 1422 1425 1428 1431 1433 1436 1438 1440 1442 1444 1446 1447 1448 1449 1450 1450 1450 1451 1450 1450 1449 1448 1447 1446 1445 1444 1443 1441 1440 1438 1436 1434 1432 1429 1428 1425 1423 1421 1419 1417 1414 1412
1414 1417 1421 1424 1427 1430 1432 1435 1437 1439 1441 1442 1444 1445 1446 1446 1447 1447 1447 1447 1446 1445 1445 1444 1442 1441 1440 1438 1436 1435 1433 1431 1429 1426 1424 1422 1420 1418 1416 1413 1411 1409 1406